Time,TemperatureF,DewpointF,PressureIn,WindDirection,WindDirectionDegrees,WindSpeedMPH,WindSpeedGustMPH,Humidity,HourlyPrecipIn,Conditions,Clouds,dailyrainin,SoftwareType,DateUTC
2013-04-23 00:01:00,47.0,36.0,30.38,ENE,71,1.0,2.0,66,0.00,,,0.00,weatherlink.com 1.10,2013-04-23 07:01:00,
2013-04-23 00:16:00,46.3,37.0,30.37,ENE,71,0.0,1.0,70,0.00,,,0.00,weatherlink.com 1.10,2013-04-23 07:16:00,
2013-04-23 00:31:00,46.4,36.0,30.38,NE,51,0.0,1.0,66,0.00,,,0.00,weatherlink.com 1.10,2013-04-23 07:31:00,
2013-04-23 00:46:00,46.5,36.0,30.38,NE,49,0.0,2.0,67,0.00,,,0.00,weatherlink.com 1.10,2013-04-23 07:46:00,
2013-04-23 01:01:00,45.0,37.0,30.38,ENE,70,1.0,2.0,74,0.00,,,0.00,weatherlink.com 1.10,2013-04-23 08:01:00,
2013-04-23 01:16:00,44.5,37.0,30.38,NE,56,0.0,2.0,75,0.00,,,0.00,weatherlink.com 1.10,2013-04-23 08:16:00,
2013-04-23 01:31:00,44.0,38.0,30.38,ENE,70,0.0,1.0,78,0.00,,,0.00,weatherlink.com 1.10,2013-04-23 08:31:00,
2013-04-23 01:46:00,43.2,37.0,30.38,NE,41,2.0,3.0,78,0.00,,,0.00,weatherlink.com 1.10,2013-04-23 08:46:00,
2013-04-23 02:01:00,43.3,37.0,30.37,NE,44,0.0,2.0,79,0.00,,,0.00,weatherlink.com 1.10,2013-04-23 09:01:00,
2013-04-23 02:16:00,42.9,37.0,30.37,ENE,77,0.0,1.0,80,0.00,,,0.00,weatherlink.com 1.10,2013-04-23 09:16:00,
2013-04-23 02:31:00,42.3,37.0,30.36,ENE,71,0.0,1.0,82,0.00,,,0.00,weatherlink.com 1.10,2013-04-23 09:31:00,
2013-04-23 02:46:00,42.2,37.0,30.36,ENE,77,1.0,1.0,83,0.00,,,0.00,weatherlink.com 1.10,2013-04-23 09:46:00,
2013-04-23 03:01:00,41.6,37.0,30.36,ENE,74,1.0,1.0,85,0.00,,,0.00,weatherlink.com 1.10,2013-04-23 10:01:00,
2013-04-23 03:16:00,41.7,38.0,30.35,ENE,73,0.0,1.0,85,0.00,,,0.00,weatherlink.com 1.10,2013-04-23 10:16:00,
2013-04-23 03:31:00,40.8,37.0,30.34,ESE,107,0.0,1.0,86,0.00,,,0.00,weatherlink.com 1.10,2013-04-23 10:31:00,
2013-04-23 03:46:00,40.7,37.0,30.34,East,79,1.0,1.0,86,0.00,,,0.00,weatherlink.com 1.10,2013-04-23 10:46:00,
2013-04-23 04:01:00,40.7,36.0,30.34,ENE,74,0.0,1.0,84,0.00,,,0.00,weatherlink.com 1.10,2013-04-23 11:01:00,
2013-04-23 04:16:00,40.0,36.0,30.35,ENE,75,0.0,1.0,86,0.00,,,0.00,weatherlink.com 1.10,2013-04-23 11:16:00,
2013-04-23 04:31:00,40.4,36.0,30.35,NE,45,2.0,2.0,85,0.00,,,0.00,weatherlink.com 1.10,2013-04-23 11:31:00,
2013-04-23 04:46:00,40.1,36.0,30.34,East,86,0.0,1.0,86,0.00,,,0.00,weatherlink.com 1.10,2013-04-23 11:46:00,
2013-04-23 05:01:00,39.5,36.0,30.34,NE,44,2.0,2.0,88,0.00,,,0.00,weatherlink.com 1.10,2013-04-23 12:01:00,
2013-04-23 05:16:00,39.5,36.0,30.34,NE,51,0.0,1.0,88,0.00,,,0.00,weatherlink.com 1.10,2013-04-23 12:16:00,
2013-04-23 05:31:00,39.5,36.0,30.34,NE,53,0.0,1.0,88,0.00,,,0.00,weatherlink.com 1.10,2013-04-23 12:31:00,
2013-04-23 05:47:00,39.3,36.0,30.33,NE,53,0.0,1.0,89,0.00,,,0.00,weatherlink.com 1.10,2013-04-23 12:47:00,
2013-04-23 06:02:00,39.0,36.0,30.33,ENE,60,0.0,1.0,90,0.00,,,0.00,weatherlink.com 1.10,2013-04-23 13:02:00,
2013-04-23 06:17:00,38.3,36.0,30.32,East,91,0.0,1.0,90,0.00,,,0.00,weatherlink.com 1.10,2013-04-23 13:17:00,
2013-04-23 06:32:00,37.4,35.0,30.32,East,89,0.0,1.0,92,0.00,,,0.00,weatherlink.com 1.10,2013-04-23 13:32:00,
2013-04-23 06:47:00,37.3,36.0,30.32,NE,44,0.0,1.0,93,0.00,,,0.00,weatherlink.com 1.10,2013-04-23 13:47:00,
2013-04-23 07:02:00,37.5,35.0,30.32,ENE,67,0.0,0.0,92,0.00,,,0.00,weatherlink.com 1.10,2013-04-23 14:02:00,
2013-04-23 07:17:00,37.6,36.0,30.32,ENE,67,0.0,0.0,92,0.00,,,0.00,weatherlink.com 1.10,2013-04-23 14:17:00,
2013-04-23 07:32:00,37.9,36.0,30.32,ENE,67,0.0,0.0,92,0.00,,,0.00,weatherlink.com 1.10,2013-04-23 14:32:00,
2013-04-23 07:47:00,38.4,36.0,30.32,ENE,67,0.0,1.0,92,0.00,,,0.00,weatherlink.com 1.10,2013-04-23 14:47:00,
2013-04-23 08:02:00,40.4,38.0,30.32,ENE,65,0.0,0.0,89,0.00,,,0.00,weatherlink.com 1.10,2013-04-23 15:02:00,
2013-04-23 08:17:00,42.8,39.0,30.32,SSW,201,0.0,1.0,85,0.00,,,0.00,weatherlink.com 1.10,2013-04-23 15:17:00,
2013-04-23 08:32:00,43.3,39.0,30.32,SE,141,0.0,1.0,83,0.00,,,0.00,weatherlink.com 1.10,2013-04-23 15:32:00,
2013-04-23 08:47:00,45.4,40.0,30.31,SSE,153,0.0,0.0,81,0.00,,,0.00,weatherlink.com 1.10,2013-04-23 15:47:00,
2013-04-23 09:02:00,45.8,39.0,30.30,West,276,1.0,2.0,77,0.00,,,0.00,weatherlink.com 1.10,2013-04-23 16:02:00,
2013-04-23 09:17:00,46.1,40.0,30.30,SSW,211,0.0,1.0,80,0.00,,,0.00,weatherlink.com 1.10,2013-04-23 16:17:00,
2013-04-23 09:32:00,47.4,41.0,30.29,South,170,1.0,2.0,79,0.00,,,0.00,weatherlink.com 1.10,2013-04-23 16:32:00,
2013-04-23 09:47:00,48.8,42.0,30.29,SW,217,2.0,2.0,76,0.00,,,0.00,weatherlink.com 1.10,2013-04-23 16:47:00,
2013-04-23 10:02:00,48.9,41.0,30.29,WSW,249,2.0,3.0,73,0.00,,,0.00,weatherlink.com 1.10,2013-04-23 17:02:00,
2013-04-23 10:17:00,50.7,42.0,30.28,WNW,285,0.0,3.0,71,0.00,,,0.00,weatherlink.com 1.10,2013-04-23 17:17:00,
2013-04-23 10:32:00,52.2,42.0,30.28,West,274,0.0,5.0,68,0.00,,,0.00,weatherlink.com 1.10,2013-04-23 17:32:00,
2013-04-23 10:47:00,53.2,42.0,30.27,West,273,3.0,7.0,67,0.00,,,0.00,weatherlink.com 1.10,2013-04-23 17:47:00,
2013-04-23 11:02:00,53.8,42.0,30.27,WNW,288,3.0,7.0,65,0.00,,,0.00,weatherlink.com 1.10,2013-04-23 18:02:00,
2013-04-23 11:17:00,54.7,43.0,30.26,SSW,208,6.0,8.0,64,0.00,,,0.00,weatherlink.com 1.10,2013-04-23 18:17:00,
2013-04-23 11:32:00,56.5,43.0,30.25,WSW,253,6.0,10.0,61,0.00,,,0.00,weatherlink.com 1.10,2013-04-23 18:32:00,
2013-04-23 11:47:00,57.0,43.0,30.25,West,266,5.0,10.0,60,0.00,,,0.00,weatherlink.com 1.10,2013-04-23 18:47:00,
2013-04-23 12:02:00,58.4,43.0,30.25,NW,311,3.0,12.0,57,0.00,,,0.00,weatherlink.com 1.10,2013-04-23 19:02:00,
2013-04-23 12:33:00,61.0,37.0,30.25,NW,315,9.0,12.0,41,0.00,,,0.00,weatherlink.com 1.10,2013-04-23 19:33:00,
2013-04-23 12:48:00,61.5,39.0,30.24,WNW,296,7.0,9.0,43,0.00,,,0.00,weatherlink.com 1.10,2013-04-23 19:48:00,
2013-04-23 13:03:00,61.8,36.0,30.23,WNW,284,3.0,9.0,39,0.00,,,0.00,weatherlink.com 1.10,2013-04-23 20:03:00,
2013-04-23 13:18:00,62.6,35.0,30.23,West,266,10.0,12.0,36,0.00,,,0.00,weatherlink.com 1.10,2013-04-23 20:18:00,
2013-04-23 13:33:00,62.9,33.0,30.22,NNW,338,5.0,12.0,33,0.00,,,0.00,weatherlink.com 1.10,2013-04-23 20:33:00,
2013-04-23 13:48:00,63.3,30.0,30.22,NW,309,0.0,15.0,29,0.00,,,0.00,weatherlink.com 1.10,2013-04-23 20:48:00,
2013-04-23 14:03:00,64.5,31.0,30.21,NNW,335,4.0,17.0,28,0.00,,,0.00,weatherlink.com 1.10,2013-04-23 21:03:00,
2013-04-23 14:18:00,65.2,30.0,30.21,West,277,10.0,10.0,27,0.00,,,0.00,weatherlink.com 1.10,2013-04-23 21:18:00,
2013-04-23 14:33:00,65.1,31.0,30.21,WSW,252,3.0,13.0,28,0.00,,,0.00,weatherlink.com 1.10,2013-04-23 21:33:00,
2013-04-23 14:48:00,65.8,31.0,30.20,NW,307,4.0,12.0,27,0.00,,,0.00,weatherlink.com 1.10,2013-04-23 21:48:00,
2013-04-23 15:03:00,66.1,30.0,30.20,NW,314,2.0,14.0,26,0.00,,,0.00,weatherlink.com 1.10,2013-04-23 22:03:00,
2013-04-23 15:18:00,65.3,31.0,30.20,North,11,7.0,19.0,28,0.00,,,0.00,weatherlink.com 1.10,2013-04-23 22:18:00,
2013-04-23 15:33:00,65.0,31.0,30.20,WSW,255,8.0,17.0,28,0.00,,,0.00,weatherlink.com 1.10,2013-04-23 22:33:00,
2013-04-23 15:48:00,65.9,31.0,30.19,NNW,336,6.0,12.0,27,0.00,,,0.00,weatherlink.com 1.10,2013-04-23 22:48:00,
2013-04-23 16:03:00,65.6,32.0,30.18,NE,46,6.0,13.0,29,0.00,,,0.00,weatherlink.com 1.10,2013-04-23 23:03:00,
2013-04-23 16:18:00,65.6,32.0,30.18,NW,322,9.0,15.0,29,0.00,,,0.00,weatherlink.com 1.10,2013-04-23 23:18:00,
2013-04-23 16:33:00,65.1,30.0,30.18,NNE,20,7.0,14.0,27,0.00,,,0.00,weatherlink.com 1.10,2013-04-23 23:33:00,
2013-04-23 16:48:00,65.1,34.0,30.18,NE,36,3.0,10.0,31,0.00,,,0.00,weatherlink.com 1.10,2013-04-23 23:48:00,
2013-04-23 17:03:00,65.0,32.0,30.17,NW,312,2.0,14.0,29,0.00,,,0.00,weatherlink.com 1.10,2013-04-24 00:03:00,
2013-04-23 17:18:00,65.4,32.0,30.16,NW,314,2.0,10.0,29,0.00,,,0.00,weatherlink.com 1.10,2013-04-24 00:18:00,
2013-04-23 17:33:00,65.2,34.0,30.16,West,276,3.0,13.0,31,0.00,,,0.00,weatherlink.com 1.10,2013-04-24 00:33:00,
2013-04-23 17:48:00,64.9,31.0,30.16,North,11,2.0,13.0,28,0.00,,,0.00,weatherlink.com 1.10,2013-04-24 00:48:00,
2013-04-23 18:03:00,65.0,31.0,30.16,WNW,283,8.0,10.0,28,0.00,,,0.00,weatherlink.com 1.10,2013-04-24 01:03:00,
2013-04-23 18:18:00,64.6,30.0,30.16,NW,320,3.0,10.0,27,0.00,,,0.00,weatherlink.com 1.10,2013-04-24 01:18:00,
2013-04-23 18:33:00,64.5,31.0,30.16,WNW,293,3.0,8.0,28,0.00,,,0.00,weatherlink.com 1.10,2013-04-24 01:33:00,
2013-04-23 18:48:00,64.1,33.0,30.16,North,8,5.0,10.0,31,0.00,,,0.00,weatherlink.com 1.10,2013-04-24 01:48:00,
2013-04-23 19:03:00,63.6,33.0,30.16,WNW,284,5.0,7.0,32,0.00,,,0.00,weatherlink.com 1.10,2013-04-24 02:03:00,
2013-04-23 19:18:00,62.9,32.0,30.16,NNW,342,1.0,7.0,32,0.00,,,0.00,weatherlink.com 1.10,2013-04-24 02:18:00,
2013-04-23 19:33:00,62.4,34.0,30.16,NW,314,1.0,4.0,35,0.00,,,0.00,weatherlink.com 1.10,2013-04-24 02:33:00,
2013-04-23 19:49:00,61.4,33.0,30.16,NNW,338,2.0,10.0,35,0.00,,,0.00,weatherlink.com 1.10,2013-04-24 02:49:00,
2013-04-23 20:03:00,59.9,32.0,30.17,NNW,334,5.0,7.0,35,0.00,,,0.00,weatherlink.com 1.10,2013-04-24 03:03:00,
2013-04-23 20:18:00,58.8,32.0,30.17,NE,34,4.0,8.0,36,0.00,,,0.00,weatherlink.com 1.10,2013-04-24 03:18:00,
2013-04-23 20:34:00,57.8,31.0,30.17,NNE,30,0.0,4.0,37,0.00,,,0.00,weatherlink.com 1.10,2013-04-24 03:34:00,
2013-04-23 20:49:00,56.9,31.0,30.18,NNE,29,0.0,5.0,38,0.00,,,0.00,weatherlink.com 1.10,2013-04-24 03:49:00,
2013-04-23 21:04:00,56.4,30.0,30.18,NNE,30,0.0,6.0,37,0.00,,,0.00,weatherlink.com 1.10,2013-04-24 04:04:00,
2013-04-23 21:19:00,55.8,29.0,30.18,NNW,344,1.0,8.0,36,0.00,,,0.00,weatherlink.com 1.10,2013-04-24 04:19:00,
2013-04-23 21:34:00,55.6,29.0,30.19,NNW,342,0.0,7.0,36,0.00,,,0.00,weatherlink.com 1.10,2013-04-24 04:34:00,
2013-04-23 21:49:00,55.9,29.0,30.19,NNW,338,2.0,8.0,36,0.00,,,0.00,weatherlink.com 1.10,2013-04-24 04:49:00,
2013-04-23 22:04:00,55.1,29.0,30.20,WSW,240,1.0,9.0,37,0.00,,,0.00,weatherlink.com 1.10,2013-04-24 05:04:00,
2013-04-23 22:19:00,53.6,29.0,30.21,WNW,284,0.0,2.0,39,0.00,,,0.00,weatherlink.com 1.10,2013-04-24 05:19:00,
2013-04-23 22:34:00,52.9,30.0,30.21,NNE,15,0.0,4.0,41,0.00,,,0.00,weatherlink.com 1.10,2013-04-24 05:34:00,
2013-04-23 22:49:00,52.3,30.0,30.21,NNE,29,2.0,2.0,42,0.00,,,0.00,weatherlink.com 1.10,2013-04-24 05:49:00,
2013-04-23 23:04:00,52.3,30.0,30.21,ENE,64,0.0,3.0,43,0.00,,,0.00,weatherlink.com 1.10,2013-04-24 06:04:00,
2013-04-23 23:19:00,50.9,31.0,30.22,ENE,65,0.0,2.0,46,0.00,,,0.00,weatherlink.com 1.10,2013-04-24 06:19:00,
2013-04-23 23:34:00,51.2,30.0,30.22,NE,40,2.0,3.0,45,0.00,,,0.00,weatherlink.com 1.10,2013-04-24 06:34:00,
2013-04-23 23:49:00,50.5,34.0,30.23,ENE,74,0.0,3.0,53,0.00,,,0.00,weatherlink.com 1.10,2013-04-24 06:49:00,